Regional Weather Roundup
Issued by NWS

Home | Current Version | Previous Version | Text Only | Print | Product List | Glossary Off
Versions: 1 2 3 4 5 6 7 8 9 10 11 12 13 14 15 16 17 18 19 20 21 22 23 24 25 26 27 28 29 30 31 32 33 34 35 36 37 38 39 40 41 42 43 44 45 46 47 48 49 50

000
ASUS43 KLOT 031700
RWRIL

ILLINOIS REGIONAL WEATHER ROUNDUP
NATIONAL WEATHER SERVICE CHICAGO/ROMEOVILLE IL
1200 PM CDT THU SEP 03 2015

NOTE: "FAIR" INDICATES FEW OR NO CLOUDS BELOW 12,000 FEET WITH NO
SIGNIFICANT WEATHER AND/OR OBSTRUCTIONS TO VISIBILITY.

* THESE STATIONS ARE NOT UNDER NWS QUALITY CONTROL. THEY ALSO MAY NOT
  REPORT WEATHER SUCH AS PRECIPITATION OR FOG.

ILZ001-002-007-009-015-016-024-031800-
NORTHWEST ILLINOIS

CITY           SKY/WX    TMP DP  RH WIND       PRES   REMARKS
MOLINE         SUNNY     88  70  55 W12       29.94F HX  93
STERLING*      SUNNY     90  73  58 W14       29.93F HX  98
$$

ILZ003-004-008-010-011-017-018-031800-
NORTH CENTRAL ILLINOIS

CITY           SKY/WX    TMP DP  RH WIND       PRES   REMARKS
ROCKFORD       MOSUNNY   86  71  60 W9        29.96S HX  91
FREEPORT*      SUNNY     83  72  69 W8        29.97S HX  89
$$

ILZ005-006-012>014-019>023-031800-
NORTHEAST ILLINOIS

CITY           SKY/WX    TMP DP  RH WIND       PRES   REMARKS
CHICAGO-OHARE  PTSUNNY   87  70  56 W10       29.94F HX  92
CHICAGO-MIDWAY MOSUNNY   89  68  49 W9        29.94F HX  93
AURORA         SUNNY     87  72  60 W8        29.96F HX  93
LANSING*       MOSUNNY   86  68  55 SW10      29.96F HX  89
WAUKEGAN         N/A    N/A N/A N/A MISG      29.93S
DUPAGE AIRPORT MOSUNNY   86  72  62 SW9       29.95S HX  92
WHEELING       PTSUNNY   87  70  56 SW9       29.95S HX  92
NORTHERLY ISL    N/A     87  65  47 W7          N/A  HX  89
$$

LMZ740>746-031800-
SOUTHERN LAKE MICHIGAN

STATION/POSITION SKY/WX   TEMP    WIND        PRES    VSBY  WAVE
                          AIR SEA DIR/SP/G                  HT/PER
                          (F)     (DEG/KT/KT) (MB)    (MI)  (FT/S)
SOUTHERN BUOY              73 71  210/  6/  6 1013.0F         1/ 3
WILMETTE HARBOR            74 60   50/  4/  6   N/A           1
HARRISON CRIB              82     220/  4/  5   N/A
BURNHAM HARBOR             86     260/  4/ 12   N/A
CALUMET HARBOR             84     200/  6/ 11   N/A
BURNS HARBOR               82     250/  7/  9 1014.9S
MICHIGAN CITY              81     220/  6/  7   N/A
MICHIGAN CITY 6N           78 73  250/  4/  6   N/A           1
ST. JOSEPH                 75 72  260/  8/  8   N/A           1/ 3
$$

ILZ025>027-034>036-040-047-049-050-058-095>099-031800-
WEST-CENTRAL ILLINOIS

CITY           SKY/WX    TMP DP  RH WIND       PRES   REMARKS
QUINCY         SUNNY     88  68  51 W8        29.99F HX  91
$$

ILZ028>032-037-038-041>044-048-051>054-059>061-031800-
CENTRAL ILLINOIS

CITY           SKY/WX    TMP DP  RH WIND       PRES   REMARKS
DECATUR        SUNNY     89  66  46 W9        30.00F HX  91
PEORIA         SUNNY     91  68  46 W12       29.98F HX  95
SPRINGFIELD    SUNNY     91  68  46 SW9       29.99F HX  95
TAYLORVILLE    NOT AVBL
$$

ILZ033-039-045-046-055>057-062-063-031800-
EAST-CENTRAL ILLINOIS

CITY           SKY/WX    TMP DP  RH WIND       PRES   REMARKS
CHAMPAIGN      SUNNY     89  67  47 SW10      30.00F HX  92
MATTOON        MOSUNNY   87  65  47 W10       30.01F HX  89
$$

ILZ079-100>102-031800-
SOUTHWEST ILLINOIS

CITY           SKY/WX    TMP DP  RH WIND       PRES   REMARKS
ALTON          SUNNY     86  70  58 SW6       30.00F HX  90
BELLEVILLE     SUNNY     89  71  56 VRB3      29.99F HX  95
CAHOKIA*       SUNNY     89  69  51 VRB7      30.00F HX  93
SPARTA*        SUNNY     87  68  52 SW7       30.03F HX  90
$$

ILZ064>066-069>071-074>076-080>082-084>086-088>090-092>094-031800-
SOUTH-CENTRAL ILLINOIS

CITY           SKY/WX    TMP DP  RH WIND       PRES   REMARKS
CARBONDALE     SUNNY     87  70  56 SW6       30.02F HX  92
MARION         MOSUNNY   88  70  55 S7        30.03F HX  92
MT. VERNON     MOSUNNY   90  70  51 SW8       30.02F HX  95
SALEM*         SUNNY     90  69  51 S7        30.01F HX  94
$$

ILZ067-068-072-073-078-083-087-091-031800-
SOUTHEAST ILLINOIS

CITY           SKY/WX    TMP DP  RH WIND       PRES   REMARKS
LAWRENCEVILLE  MOSUNNY   88  68  51 W8        30.01F HX  91
FLORA*         MOSUNNY   90  67  46 W6        30.01F HX  92
ROBINSON*      SUNNY     89  68  51 W6        30.02F HX  92
$$

ABBREVIATIONS USED IN REMARKS
   TC - TEMPERATURE IN CELSIUS
  WCI - WIND CHILL INDEX
   HX - HEAT INDEX
  VSB - VISIBILITY
$$



USA.gov is the U.S. government's official web portal to all federal, state and local government web resources and services.